Regional Weather Roundup
Issued by NWS

Home | Current Version | Previous Version | Graphics & Text | Print | Product List | Glossary On
Versions: 1 2 3 4 5 6 7 8 9 10 11 12 13 14 15 16 17 18 19 20 21 22 23 24 25 26 27 28 29 30 31 32 33 34 35 36 37 38 39 40 41 42 43 44 45 46 47 48 49 50
070
ASUS45 KBOI 300010
RWRID

IDAHO REGIONAL WEATHER ROUNDUP
NATIONAL WEATHER SERVICE BOISE ID
600 PM MDT THU SEP 29 2016

NOTE: "FAIR" INDICATES FEW OR NO CLOUDS BELOW 12000 FEET
WITH NO SIGNIFICANT WEATHER AND/OR OBSTRUCTIONS TO VISIBILITY

IDZ012-014-300100-
SOUTHWEST IDAHO


CITY           SKY/WX    TMP DP  RH WIND       PRES   REMARKS
BOISE          MOSUNNY   89  33  13 VRB3      29.95S
CALDWELL       MOSUNNY   87  43  21 NE6       29.92F
MOUNTAIN HOME  MOSUNNY   85  41  20 S22G28    29.98R
$$

IDZ016-017-300100-
SOUTHCENTRAL IDAHO


CITY           SKY/WX    TMP DP  RH WIND       PRES   REMARKS
BURLEY         MOSUNNY   71  48  43 SW13      30.10R
JEROME         MOSUNNY   76  45  33 SE6       30.08S
TWIN FALLS     PTSUNNY   74  40  29 S13       30.09R
$$

IDZ019>023-300100-
SOUTHEAST IDAHO


CITY           SKY/WX    TMP DP  RH WIND       PRES   REMARKS
IDAHO FALLS    MOSUNNY   73  46  38 S9        30.17R
POCATELLO      NOT AVBL
REXBURG        LGT RAIN  69  47  45 SE12G18   30.18R
$$

IDZ006-010-011-018-031-032-300100-
CENTRAL IDAHO MOUNTAINS


CITY           SKY/WX    TMP DP  RH WIND       PRES   REMARKS
MCCALL         MOSUNNY   74  40  29 S6        30.08F
HAILEY         MOSUNNY   72  50  46 SE5       30.16S
STANLEY          N/A     73  31  21 VRB3      30.19R
SALMON         MOSUNNY   75  39  27 S25G35    30.02R
CHALLIS        LGT RAIN  63  47  55 NW3       30.19R
$$

IDZ002-004-006-007-026-300100-
NORTHERN IDAHO


CITY           SKY/WX    TMP DP  RH WIND       PRES   REMARKS
LEWISTON       MOSUNNY   83  43  24 W7        29.88S
LOWELL           N/A     67  56  67 N5        29.87S
COEUR D`ALENE  SUNNY     76  51  41 N5        29.94S
MULLAN PASS    SUNNY     66  40  38 SW6       30.13R
$$




USA.gov is the U.S. government's official web portal to all federal, state and local government web resources and services.